Hurlburt Field, FL

10:07 PM CST on December 04, 2016 (GMT -0600)
Hurlburt

Weather History for KHRT - February, 2014

Change the Weather History Date:

Saturday, February 22, 2014

  Actual Average Record
Temperature  
Mean Temperature 54 °F -  
Max Temperature 68 °F 63 °F 79 °F (2007)
Min Temperature 41 °F 46 °F 30 °F (1999)
Degree Days  
Heating Degree Days 10    
Growing Degree Days 4 (Base 50)    
Moisture  
Dew Point 32 °F    
Average Humidity 44    
Maximum Humidity 77    
Minimum Humidity 21    
Precipitation  
Precipitation 0.00 in - - ()
Sea Level Pressure  
Sea Level Pressure 30.09 in    
Wind  
Wind Speed 7 mph (ENE)    
Max Wind Speed 13 mph    
Max Gust Speed -    
Visibility 10 miles    
Events Rain    
Averages and records for this station are not official NWS values.
T = Trace of Precipitation, MM = Missing Value Source: NWS Daily Summary

Daily Weather History Graph

Daily Weather History Graph

Search for Another Location

Airport or City:

Trip Planner

Search our weather history database for the weather conditions in past years. The results will help you decide how hot, cold, wet, or windy it might be!

Date:

Astronomy

Feb. 22, 2014 Rise Set
Actual Time 6:20 AM CST 5:40 PM CST
Civil Twilight 5:56 AM CST 6:04 PM CST
Nautical Twilight 5:28 AM CST 6:32 PM CST
Astronomical Twilight 5:00 AM CST 7:00 PM CST
Moon 12:05 AM CST (2/22) 11:01 AM CST (2/22)
Length of Visible Light 12h 08m
Length of Day
11h 20m
Waning Gibbous, 50% of the Moon is Illuminated
Feb 22
Waning Gibbous
Mar 1
New
Mar 8
First Quarter
Mar 16
Full
Mar 23
Last Quarter

Hourly Weather History & Observations

Time (CST) Temp. Windchill Dew Point Humidity Pressure Visibility Wind Dir Wind Speed Gust Speed Precip Events Conditions
12:58 AM 46.2 °F 42.2 °F 33.4 °F 61% 30.10 in 10.0 mi North 8.1 mph - N/A   Clear
1:58 AM 46.4 °F 42.4 °F 32.2 °F 58% 30.08 in 10.0 mi North 8.1 mph - N/A   Clear
2:58 AM 44.4 °F 40.0 °F 30.9 °F 59% 30.09 in 10.0 mi North 8.1 mph - N/A   Clear
3:58 AM 45.0 °F 40.6 °F 29.8 °F 55% 30.10 in 10.0 mi North 8.1 mph - N/A   Clear
4:58 AM 43.2 °F 37.9 °F 30.0 °F 60% 30.11 in 10.0 mi North 9.2 mph - N/A   Clear
5:58 AM 41.7 °F 37.3 °F 28.9 °F 61% 30.13 in 10.0 mi NE 6.9 mph - N/A   Clear
6:58 AM 45.5 °F 42.5 °F 28.2 °F 51% 30.15 in 10.0 mi NE 5.8 mph - N/A   Clear
7:58 AM 52.7 °F - 23.2 °F 32% 30.16 in 10.0 mi NE 9.2 mph - N/A   Clear
8:58 AM 58.1 °F - 23.0 °F 26% 30.16 in 10.0 mi ENE 12.7 mph - N/A   Clear
9:58 AM 63.0 °F - 24.3 °F 23% 30.16 in 10.0 mi ENE 10.4 mph - N/A   Clear
10:58 AM 65.5 °F - 24.6 °F 21% 30.14 in 10.0 mi East 8.1 mph - N/A   Clear
11:58 AM 67.3 °F - 25.3 °F 21% 30.12 in 10.0 mi East 9.2 mph - 0.00 in   Clear
12:58 PM 68.2 °F - 27.0 °F 21% 30.09 in 10.0 mi East 8.1 mph - 0.00 in Rain Light Rain
1:06 PM 68.0 °F - 26.6 °F 21% 30.07 in 10.0 mi SE 9.2 mph - N/A   Clear
1:58 PM 68.2 °F - 28.6 °F 23% 30.07 in 10.0 mi South 10.4 mph - 0.00 in   Clear
2:58 PM 66.9 °F - 28.6 °F 24% 30.07 in 10.0 mi South 6.9 mph - N/A   Clear
3:58 PM 66.2 °F - 30.6 °F 26% 30.06 in 10.0 mi South 6.9 mph - N/A   Partly Cloudy
4:53 PM 64.4 °F - 32.0 °F 30% 30.04 in 10.0 mi SSE 4.6 mph - N/A Rain Light Rain
4:58 PM 64.0 °F - 32.5 °F 31% 30.05 in 10.0 mi SSE 4.6 mph - 0.00 in Rain Light Rain
5:02 PM 64.4 °F - 32.0 °F 30% 30.04 in 10.0 mi SSE 4.6 mph - N/A   Scattered Clouds
5:04 PM 64.4 °F - 32.0 °F 30% 30.04 in 10.0 mi South 4.6 mph - N/A Rain Light Rain
5:58 PM 59.9 °F - 39.9 °F 48% 30.05 in 10.0 mi Calm Calm - 0.00 in Rain Light Rain
6:16 PM 60.8 °F - 39.2 °F 45% 30.04 in 10.0 mi Calm Calm - N/A   Partly Cloudy
6:58 PM 55.2 °F - 42.3 °F 62% 30.06 in 10.0 mi Calm Calm - 0.00 in   Clear
7:58 PM 56.3 °F - 42.6 °F 60% 30.06 in 10.0 mi North 3.5 mph - N/A   Partly Cloudy
8:58 PM 53.2 °F - 44.4 °F 72% 30.06 in 10.0 mi North 3.5 mph - N/A   Clear
9:58 PM 51.4 °F - 43.5 °F 74% 30.06 in 10.0 mi NNW 1.2 mph - N/A   Clear
10:58 PM 50.5 °F - 43.7 °F 77% 30.06 in 10.0 mi Calm Calm - N/A   Clear
11:58 PM 50.9 °F - 41.9 °F 71% 30.05 in 10.0 mi NNW 2.3 mph - N/A   Scattered Clouds